Regional Weather Roundup
Issued by NWS

Home | Current Version | Previous Version | Graphics & Text | Print | Product List | Glossary On
Versions: 1 2 3 4 5 6 7 8 9 10 11 12 13 14 15 16 17 18 19 20 21 22 23 24 25 26 27 28 29 30 31 32 33 34 35 36 37 38 39 40 41 42 43 44 45 46 47 48 49 50
000
ASUS43 KLMK 260610
RWRKY
KENTUCKY REGIONAL WEATHER ROUNDUP
NATIONAL WEATHER SERVICE LOUISVILLE KY
200 AM EDT WED JUL 26 2017

NOTE "FAIR" INDICATES FEW OR NO CLOUDS BELOW 12,000 FEET
WITH NO SIGNIFICANT WEATHER AND/OR OBSTRUCTIONS TO VISIBILITY.

KYZ001>023-026-027-061>063-070>075-260700-
WESTERN AND SOUTH CENTRAL KENTUCKY

CITY           SKY/WX    TMP DP  RH WIND       PRES   REMARKS
PADUCAH        PTCLDY    77  73  87 SE3       30.07F
HENDERSON      CLEAR     75  71  87 E3        30.10F
OWENSBORO      NOT AVBL
HOPKINSVILLE   CLEAR     77  72  85 E5        30.09F
BOWLING GREEN  CLEAR     75  70  84 NE3       30.11F
GLASGOW        CLEAR     71  66  84 E3        30.13S
$$

KYZ024-025-028>034-038-045-046-053-260700-
NORTH CENTRAL KENTUCKY

CITY           SKY/WX    TMP DP  RH WIND       PRES   REMARKS
LOUISVILLE/SDF CLEAR     74  62  66 E6        30.13F
LOUISVILLE/LOU CLEAR     72  63  73 E7        30.15S
FORT KNOX      CLEAR     72  63  74 E8        30.12F
$$

KYZ035>037-039>044-047>052-055>060-089>105-260700-
NORTHEAST KENTUCKY

CITY           SKY/WX    TMP DP  RH WIND       PRES   REMARKS
LEXINGTON      CLEAR     68  60  75 E8        30.17F
COVINGTON      CLEAR     66  62  87 E7        30.19R
FRANKFORT      CLEAR     67  60  78 E7        30.16F
$$

KYZ054-064>069-076>088-106>120-260700-
SOUTHEAST KENTUCKY

CITY           SKY/WX    TMP DP  RH WIND       PRES   REMARKS
JACKSON        CLEAR     65  60  84 CALM      30.18F
LONDON         CLEAR     68  63  84 N5        30.17S
SOMERSET       CLEAR     68  63  83 N3        30.17S
MIDDLESBORO    CLEAR     67  67 100 CALM      30.17F
MONTICELLO     CLEAR     66  65  96 NE10      30.17F FOG
$$




USA.gov is the U.S. government's official web portal to all federal, state and local government web resources and services.